Вернуться в каталог

ONEWEB-0137

АктивенСвязьPO
NORAD 47283·PAYLOAD·🇬🇧 United Kingdom

Запущен Dec 18, 2020 с Vostochny Cosmodrome

Loading…

Ближайшие Пролёты (ближайшие 24 часа)

TLE

СвежийSource: CelesTrak SupGP

Эпоха: Sep 15, 2026, 02:47 UTC

1 47283C 20100AB  26258.11647407  .00003024  00000+0  84158-2 0  2584
2 47283  87.8989 332.8134 0001918 104.0155 291.0544 13.12444098    16

Отслеживайте ONEWEB-0137 в реальном времени с AllMySat

Download on the App Store